Theta_e
333 332 331 332 333 334 335 337 338 338 338 337 337 332 330 331 332 332 332 331 328 326 324 321 319 317 318 319 319 319 324 329 331 331 326 317 314 316 317 319 317 316 316 316 315 316 316 316 317 313 313 313 311 311 310 311 312 315 317 319 320 323 325 326 327 324 324 321 319 325 327 323 322 327 329 330 330 330 327 321 326 330 330 330 331
333 331 331 332 333 334 336 337 337 338 338 338 336 332 330 332 332 332 332 331 328 327 325 321 319 318 318 319 319 318 320 323 325 324 320 315 315 317 317 319 317 316 315 316 316 316 316 317 319 314 313 311 310 311 312 314 316 319 322 325 326 327 328 329 330 328 328 327 322 321 326 322 319 326 329 328 330 330 328 323 324 329 330 330 331
333 331 331 331 333 335 336 337 337 338 337 338 336 332 330 332 332 332 332 331 329 327 326 322 319 318 317 318 317 316 317 317 318 318 316 316 320 323 323 324 320 316 315 316 315 316 317 317 317 314 312 310 311 315 317 320 322 325 327 329 330 329 328 329 329 327 327 329 326 318 321 325 321 324 327 327 329 330 331 328 325 328 330 330 330
335 332 331 331 333 335 336 337 337 338 338 338 336 332 331 332 332 333 333 332 329 327 326 323 319 318 318 317 317 317 317 316 316 317 317 318 326 333 333 330 321 316 316 316 316 316 317 317 316 314 312 312 316 321 323 325 328 329 331 332 332 332 331 330 328 326 326 328 329 318 314 323 324 323 324 325 328 330 331 329 326 327 330 330 330
335 333 332 331 332 334 336 336 337 338 338 338 336 333 331 332 332 333 333 333 330 327 326 324 320 317 318 318 317 317 318 319 320 322 323 322 326 332 333 329 323 320 317 316 316 315 316 317 315 314 313 315 319 323 326 328 331 332 334 334 334 334 332 332 331 327 327 328 330 322 310 316 325 325 324 324 327 328 329 328 326 327 328 329 329
336 335 333 332 331 333 335 337 337 338 338 338 337 334 331 331 332 332 333 333 331 327 325 324 321 318 318 320 319 319 321 324 327 329 329 330 329 330 329 326 325 322 318 317 316 315 315 316 314 314 315 317 321 325 328 331 333 334 335 335 335 335 334 333 333 330 329 330 331 327 315 311 320 324 323 321 323 326 327 327 327 326 326 326 326
337 335 333 332 331 332 335 336 337 337 338 338 337 335 332 331 332 333 333 334 331 326 324 323 321 318 318 321 323 324 327 329 330 331 333 334 335 334 330 325 324 322 319 318 317 315 314 315 314 315 316 318 323 327 330 332 334 334 335 336 336 335 335 334 334 333 330 330 331 330 321 309 313 320 323 321 322 325 324 324 326 324 323 323 322
337 335 334 332 331 332 334 336 337 337 338 338 337 336 333 331 332 333 334 335 332 325 323 322 321 320 319 321 323 326 329 330 331 332 333 335 336 336 333 328 325 322 319 318 318 315 314 314 313 314 316 319 324 328 331 333 334 335 336 336 336 335 334 333 332 332 329 329 329 330 322 310 309 314 319 322 322 321 318 321 325 322 321 321 319
336 335 334 332 330 330 332 335 337 337 338 338 337 336 333 331 332 333 334 335 331 324 320 320 320 321 321 322 323 325 326 328 330 330 330 331 333 334 332 329 324 320 319 318 318 315 313 313 313 314 315 320 325 329 331 333 334 334 336 335 336 335 333 330 329 331 330 328 328 328 321 310 310 310 314 316 314 315 315 318 321 320 321 319 316
335 335 334 332 330 329 331 333 335 337 337 337 337 337 334 331 332 333 334 336 331 321 318 318 319 322 323 324 324 325 325 326 327 326 326 327 329 329 327 325 320 318 319 318 318 316 314 313 313 313 316 322 326 330 332 333 333 334 334 334 335 334 331 329 329 331 330 329 327 325 317 309 309 310 314 313 312 315 317 318 319 318 318 317 314
335 335 334 331 329 328 329 330 333 336 337 337 337 337 335 331 331 334 335 336 329 320 318 319 320 322 324 325 325 325 325 324 324 324 324 324 324 323 321 320 318 318 318 317 317 317 315 314 313 314 318 324 327 329 331 331 331 332 333 334 334 332 330 329 330 330 331 330 325 321 315 310 308 309 313 312 311 315 318 320 320 319 317 317 318
336 335 333 331 328 326 326 327 331 334 336 337 337 338 335 331 332 334 336 333 324 318 318 320 321 322 324 326 326 326 325 325 324 323 322 322 322 320 320 320 319 318 317 317 317 318 317 315 315 316 319 324 327 329 330 330 331 332 333 334 333 331 329 330 331 332 332 329 325 322 317 309 308 309 310 310 309 311 314 316 317 318 317 315 317
336 335 333 330 326 325 324 325 328 332 335 337 337 338 336 332 332 334 335 328 319 318 320 322 322 324 327 328 329 328 329 328 327 326 324 322 322 322 322 321 321 321 319 318 317 319 319 316 316 316 319 324 328 331 332 333 333 333 334 334 332 331 330 331 333 333 332 330 327 323 317 310 309 308 308 309 310 310 310 311 311 314 312 310 312
336 334 332 330 327 325 323 323 326 329 334 336 336 338 335 333 333 335 334 323 317 320 323 324 326 328 330 331 331 331 331 330 329 329 328 326 325 325 325 324 323 324 323 321 320 319 319 318 317 317 319 324 329 332 334 334 332 333 335 335 333 332 333 333 333 333 332 332 326 318 314 312 310 308 308 309 309 310 310 310 310 310 309 309 309
336 335 333 332 328 325 323 323 325 329 333 336 337 337 335 333 333 336 332 320 319 324 326 328 330 331 332 332 332 331 331 330 329 329 331 330 328 326 326 327 326 326 326 325 323 323 323 321 319 318 319 321 326 332 334 334 333 334 335 335 334 333 332 332 333 333 333 332 324 317 313 312 312 309 308 308 308 309 309 310 310 310 309 309 309
336 335 334 333 329 325 324 325 327 330 333 336 337 337 334 333 335 335 328 319 322 328 330 331 332 333 333 333 332 331 332 330 327 327 329 330 328 326 325 325 325 325 325 323 322 323 324 323 322 319 318 319 324 331 334 334 333 334 335 335 334 332 332 332 333 333 334 332 327 322 314 312 313 311 310 308 308 308 309 309 309 309 309 309 309
336 336 335 333 329 326 326 327 329 331 334 337 337 336 333 334 335 329 322 320 327 331 332 332 332 333 333 333 331 330 331 330 327 325 325 325 324 324 322 320 320 320 319 318 317 318 320 321 322 320 318 318 321 328 333 334 333 334 335 335 334 333 333 333 334 333 334 333 331 327 317 313 313 312 311 309 309 308 308 309 309 309 309 309 308
336 336 335 334 330 328 327 328 331 334 335 336 336 335 333 335 333 323 320 325 330 332 332 332 332 333 334 332 331 331 331 331 328 324 322 323 323 322 320 319 319 319 318 317 316 316 316 317 319 319 318 317 318 323 330 334 333 335 335 335 334 334 334 333 334 333 334 334 332 328 320 316 314 312 312 311 310 308 308 308 308 308 309 309 309
336 335 336 335 332 329 328 329 332 333 335 336 335 334 334 335 329 321 324 329 331 333 332 332 332 332 333 331 331 331 330 331 328 324 324 325 326 322 320 321 320 320 320 319 319 317 316 316 316 317 317 316 317 319 327 332 333 335 335 334 334 334 334 333 333 333 333 333 331 327 321 318 316 314 312 312 311 310 308 307 307 307 308 308 309
336 335 336 335 333 330 328 330 332 332 334 334 334 334 335 332 324 323 329 332 332 333 332 332 331 331 331 330 330 331 330 329 328 325 327 328 327 323 321 321 321 321 321 320 320 319 318 317 316 316 317 316 316 317 322 327 331 335 335 335 335 334 334 333 333 333 333 332 330 327 322 319 317 316 313 312 312 311 310 308 307 307 307 307 308
335 336 336 335 333 330 330 333 332 330 331 332 333 334 334 329 322 326 332 332 333 332 332 331 331 330 329 328 328 329 329 328 327 326 326 327 326 323 321 321 321 322 321 321 321 320 320 318 316 316 317 316 316 317 318 321 330 335 335 335 335 334 334 333 333 333 333 332 330 327 322 320 318 316 315 313 312 312 311 309 308 307 307 307 306
336 336 336 335 334 332 332 333 331 330 329 330 331 331 331 325 322 329 333 333 333 332 331 330 329 327 326 326 328 329 328 327 326 327 326 326 326 324 323 322 322 322 322 322 322 321 320 319 318 316 316 317 316 318 318 321 331 335 335 336 334 334 333 333 333 333 332 332 331 328 322 320 318 317 316 315 314 312 311 310 309 308 307 307 306
336 336 336 336 335 334 333 332 331 332 330 329 328 329 327 322 324 331 333 333 333 332 330 329 327 325 325 326 327 327 327 326 326 327 327 326 326 324 323 322 322 323 322 322 321 320 320 319 318 316 317 319 320 322 322 325 332 335 335 335 334 333 332 332 333 332 332 332 331 328 323 320 319 318 317 316 315 313 311 311 310 308 308 307 306
337 336 336 336 336 335 335 332 331 333 333 330 327 327 324 322 326 331 332 333 333 332 330 328 325 323 325 326 327 327 326 326 327 328 329 327 326 325 323 323 323 322 321 321 320 321 320 319 318 318 320 321 321 323 324 327 333 335 334 335 334 332 331 332 332 332 333 332 330 326 323 320 319 318 317 316 316 314 312 311 310 309 308 307 307
338 337 337 336 336 336 335 334 333 333 333 332 328 326 323 323 328 331 332 333 332 331 329 326 323 322 325 327 328 327 326 326 326 328 329 328 326 325 323 323 323 322 321 320 320 321 320 320 320 321 324 324 324 324 324 326 330 333 333 333 334 332 330 329 330 332 333 331 330 327 324 321 319 318 318 317 316 315 313 311 310 309 308 307 307
339 338 337 336 336 335 335 335 334 334 334 332 330 327 324 325 329 331 332 332 331 330 328 324 322 322 325 328 329 327 327 327 326 327 328 328 327 327 325 325 326 325 324 324 322 323 323 323 324 326 328 329 329 329 327 326 327 330 332 332 332 331 330 328 329 332 332 331 331 329 325 322 320 318 319 320 319 317 314 311 310 309 308 307 307
340 339 338 337 336 336 334 335 335 334 334 333 332 329 326 327 330 332 332 331 330 329 326 323 322 324 326 329 329 327 327 327 326 327 328 328 328 328 328 328 329 328 327 328 327 327 327 326 327 329 330 330 330 330 329 328 327 327 329 329 328 329 330 330 330 332 332 332 332 330 326 323 319 319 321 322 323 321 314 311 310 309 309 308 308
341 339 338 338 337 336 335 334 335 334 334 333 333 331 329 329 331 332 332 330 329 328 325 323 323 324 326 328 328 327 326 326 326 327 327 328 327 327 329 329 329 328 327 327 328 328 328 328 329 329 329 329 330 329 329 329 329 329 328 327 327 327 328 330 331 332 332 332 332 330 326 322 319 319 322 323 323 320 315 313 311 309 308 308 308
341 339 337 338 337 337 335 335 335 335 333 333 333 332 331 330 332 333 331 330 329 326 325 323 323 324 326 327 326 325 325 324 325 326 326 326 326 325 326 328 326 327 327 326 327 327 327 328 329 329 329 329 330 329 328 329 329 330 329 329 329 329 329 329 330 332 333 332 331 329 326 323 320 319 320 322 322 319 316 317 316 313 310 309 309
340 339 339 338 337 336 336 335 335 335 333 333 333 332 332 331 332 333 331 330 328 326 325 324 324 325 325 325 325 325 326 325 326 326 326 325 326 325 325 326 325 326 327 326 327 327 328 328 328 329 329 329 329 329 329 328 328 329 329 330 330 331 332 331 330 332 333 332 330 329 326 323 321 318 318 319 322 321 317 319 321 317 312 311 311
340 340 340 338 335 334 335 335 336 335 334 334 333 333 333 332 332 332 330 330 328 326 326 325 325 325 325 325 326 327 326 326 326 326 325 324 325 325 326 326 326 327 327 327 328 328 329 328 327 327 328 329 328 328 328 328 328 328 329 329 330 330 332 331 330 330 331 331 330 328 325 323 320 318 318 317 321 323 317 318 321 319 317 318 317
341 340 339 336 334 334 334 335 335 334 334 333 332 331 331 331 331 330 328 329 328 325 326 326 325 325 326 327 327 327 326 326 326 326 325 325 325 325 326 326 326 327 328 328 328 329 329 328 327 327 328 328 328 328 328 328 328 327 327 328 327 328 330 331 330 329 331 331 329 327 325 324 321 318 318 318 320 321 317 318 321 322 323 322 319
340 338 336 335 334 334 334 334 333 333 332 331 329 329 330 329 328 328 327 328 327 325 326 326 325 327 328 327 327 327 327 327 326 326 326 326 325 325 326 326 326 327 328 328 327 328 328 328 327 327 327 327 327 328 328 328 328 327 327 326 327 328 329 330 331 330 331 331 328 326 326 324 321 318 319 320 321 321 320 320 321 321 321 318 315
339 336 334 334 334 334 333 333 332 332 330 328 328 329 330 328 328 328 327 326 326 325 326 326 326 328 328 327 327 327 327 327 326 326 326 327 326 325 325 325 326 327 327 328 327 327 328 328 327 326 327 326 326 327 327 328 327 327 327 327 328 328 328 329 330 330 330 330 328 326 326 325 322 322 323 324 324 324 324 324 322 320 319 317 318
337 334 332 332 335 334 333 333 331 331 329 329 329 329 329 328 329 329 327 326 326 326 326 326 327 328 328 328 328 328 328 328 327 328 327 327 327 326 326 326 327 327 327 328 326 327 328 326 326 327 326 326 326 326 327 328 327 327 327 327 327 327 327 327 328 329 329 329 328 327 326 326 325 326 326 326 327 327 326 326 325 323 322 322 323
334 333 330 331 336 335 332 332 332 331 330 330 330 329 329 330 329 328 326 326 327 326 327 327 328 328 328 328 329 329 328 328 328 328 328 328 327 326 326 327 327 328 327 327 325 326 327 326 326 327 326 326 327 327 327 328 327 327 326 326 326 327 327 326 327 328 329 329 327 327 326 326 326 326 326 327 327 327 327 327 326 326 326 326 326
333 333 331 330 335 334 331 331 332 332 332 331 331 330 330 330 329 328 327 328 328 327 328 328 329 329 329 329 329 329 328 328 328 328 328 328 327 327 327 327 327 328 327 327 326 326 326 326 327 327 326 327 327 327 328 327 327 327 327 326 326 327 326 325 326 327 328 328 327 327 326 326 326 326 326 326 327 327 326 326 326 327 327 327 327
333 333 331 329 332 332 331 332 332 332 331 331 332 331 330 330 329 328 328 329 328 328 329 329 329 329 329 329 329 329 328 328 328 328 328 328 327 327 327 327 327 327 327 326 326 326 326 327 327 326 327 328 327 327 328 327 327 327 327 327 326 326 325 325 326 327 328 328 328 327 326 326 326 326 325 326 326 326 326 326 326 326 326 327 328
333 333 332 329 331 333 332 333 332 332 330 329 331 331 331 330 329 330 329 328 328 329 330 329 329 328 328 328 329 329 327 327 327 328 328 328 328 328 328 327 327 327 326 326 326 326 327 327 326 326 327 328 328 328 328 328 328 328 327 327 326 326 326 326 327 327 328 328 328 327 326 326 326 326 326 326 326 326 326 326 325 325 325 325 326
334 334 332 329 331 333 333 333 333 333 330 328 329 330 331 331 329 329 328 328 330 330 329 328 327 327 327 327 328 327 326 325 326 327 328 328 328 328 328 327 327 327 327 327 326 326 326 326 325 325 327 328 329 329 329 329 328 328 327 326 327 328 327 327 328 328 327 328 327 326 326 327 327 327 327 326 326 326 327 326 325 325 325 325 325
335 334 333 330 331 333 333 333 333 333 329 327 327 327 331 332 330 329 329 330 329 328 327 326 325 326 327 328 327 325 325 325 326 326 327 328 328 327 327 327 327 327 327 326 325 324 325 325 324 325 327 328 329 330 329 329 328 327 326 326 327 328 327 328 328 328 328 328 327 326 325 326 326 326 326 326 326 327 327 325 324 325 326 325 325
335 334 332 330 331 333 333 332 333 332 329 327 327 327 330 332 331 330 330 329 327 326 325 324 324 325 327 328 327 327 326 326 326 326 326 327 327 326 325 326 326 325 326 325 324 323 325 325 323 325 328 329 330 330 329 329 329 327 326 326 327 328 328 328 327 328 328 328 327 326 326 325 325 325 325 326 326 327 326 324 324 325 325 325 324
335 334 331 329 332 334 333 332 332 331 328 328 329 329 330 331 330 329 328 326 326 327 324 324 324 323 325 327 327 326 327 326 326 326 326 326 326 325 325 326 325 325 326 326 324 324 325 326 325 325 327 329 330 329 329 329 328 328 327 326 327 327 328 328 328 328 328 328 328 327 326 326 326 326 326 326 326 327 326 325 324 325 325 324 324
334 333 331 330 333 334 332 332 332 329 326 327 328 328 329 330 329 327 326 326 327 328 326 325 325 324 325 328 327 326 327 327 326 325 326 326 326 326 326 326 326 326 326 326 326 325 326 327 326 326 326 327 329 329 329 329 328 328 327 327 327 326 327 328 328 328 328 327 328 327 326 326 326 326 326 326 326 326 325 325 325 325 325 324 323
331 333 333 332 332 332 332 332 331 327 324 325 327 327 328 329 329 329 329 328 328 329 328 326 325 323 324 325 325 326 326 326 327 326 326 326 326 326 326 326 327 327 326 326 327 327 327 327 326 326 325 326 327 327 328 328 328 327 326 326 326 326 326 326 327 328 328 328 327 326 325 326 326 326 325 325 325 325 325 325 325 325 324 322 320
329 333 333 333 331 331 332 332 329 326 325 326 327 326 326 328 329 330 330 329 329 328 325 323 323 322 322 322 323 324 323 323 325 326 326 325 326 326 326 326 327 326 326 327 327 327 327 326 326 326 326 325 325 326 326 327 327 327 326 325 325 325 326 324 325 327 327 327 327 326 326 326 326 325 325 325 325 325 324 325 325 323 321 319 318
332 333 332 332 332 331 332 331 327 326 327 328 327 326 328 329 329 329 329 326 327 325 321 320 321 321 321 321 320 321 320 320 321 322 322 322 323 325 325 325 326 326 326 327 327 327 327 327 326 326 326 325 325 325 325 325 326 326 325 325 325 325 325 325 325 325 325 326 326 326 326 325 325 325 324 324 323 322 322 323 322 319 318 318 318
332 334 332 332 332 332 332 328 325 327 329 329 328 329 330 330 329 329 327 325 325 322 318 318 318 318 317 317 318 320 323 322 322 321 317 315 318 321 321 321 323 324 326 327 327 327 327 327 326 326 325 326 325 325 326 326 326 325 324 325 326 325 325 325 324 323 324 326 326 326 325 324 323 323 322 321 321 320 319 319 318 317 317 317 317
329 333 333 332 331 332 331 327 327 329 331 330 330 331 331 330 329 328 327 328 326 319 316 317 316 314 312 312 316 320 324 325 324 322 317 315 318 320 321 320 321 321 323 326 327 327 326 326 325 324 325 325 326 326 327 327 326 326 325 325 326 325 325 326 325 324 324 325 326 325 323 322 322 322 321 320 320 319 317 316 315 315 314 314 314
325 329 333 332 330 329 329 328 329 330 331 330 330 331 331 330 330 329 329 328 322 316 318 320 318 315 310 310 313 317 322 325 324 323 321 320 322 324 323 323 323 322 321 322 325 327 326 325 324 324 325 325 325 325 326 327 327 327 326 325 325 325 325 326 325 324 324 324 324 323 321 321 322 322 321 320 319 318 317 315 313 312 311 309 309
324 327 331 330 328 327 326 328 330 331 331 331 331 331 331 330 330 330 328 321 316 317 321 322 320 316 311 311 314 315 318 321 322 323 323 324 324 325 325 325 324 324 322 320 321 325 325 324 323 324 324 325 325 325 325 326 327 327 327 326 325 325 324 325 325 325 324 324 323 322 321 321 321 321 321 319 319 317 315 313 311 309 308 306 305
Wind_Speed
27 25 25 25 25 26 26 27 26 25 25 25 24 23 22 22 21 20 20 19 19 19 19 19 19 19 19 20 20 20 20 20 19 16 14 13 13 13 13 13 14 13 13 12 11 10 10 12 13 14 14 14 16 18 21 22 23 23 24 24 23 23 23 22 23 24 25 24 20 18 18 18 19 18 18 20 23 22 22 23 22 23 22 20 18
27 25 25 24 25 26 26 27 26 25 25 25 24 23 22 21 21 20 19 18 18 18 18 19 19 20 20 21 21 22 22 21 20 18 16 14 14 14 14 14 13 13 13 12 12 11 11 14 15 17 17 17 20 21 23 23 23 23 23 23 22 21 21 22 21 22 23 25 23 19 19 20 20 19 18 18 21 22 22 21 20 21 21 19 18
25 26 25 24 24 25 26 26 26 26 26 25 24 23 22 21 20 19 18 17 17 17 17 18 19 20 20 21 22 22 22 21 20 18 16 15 14 14 14 14 14 14 13 12 12 11 12 14 16 20 19 20 22 22 23 22 23 22 22 22 21 20 21 21 21 21 23 24 24 20 18 20 19 18 17 16 20 21 20 19 19 20 19 18 17
25 25 25 24 23 24 25 25 26 26 26 25 23 23 22 21 20 19 18 17 16 15 16 17 18 19 20 20 21 21 21 20 19 17 15 14 15 16 15 14 14 14 13 12 12 12 12 12 16 20 20 22 23 23 23 23 23 22 22 21 21 20 20 21 20 21 22 22 24 22 18 20 19 18 17 16 18 19 18 18 18 18 18 17 16
25 25 25 24 23 23 24 25 26 26 26 24 23 23 22 21 19 18 17 16 15 14 14 15 16 18 19 19 19 19 19 18 17 16 15 14 15 15 14 13 12 12 12 12 12 12 12 13 17 20 20 22 22 22 23 23 23 22 22 21 20 19 18 19 18 19 20 21 22 22 18 19 20 17 17 16 17 17 17 17 17 17 16 16 15
25 25 25 24 23 23 23 24 25 26 25 24 23 22 22 20 19 18 16 15 14 14 13 14 15 17 18 19 19 18 18 17 16 15 14 14 14 13 13 12 11 10 10 11 12 12 12 15 19 20 21 22 22 22 23 23 24 23 22 21 19 17 16 15 15 16 18 19 20 20 18 18 20 18 17 17 16 15 14 16 16 15 15 13 13
25 25 25 24 23 23 23 23 25 25 25 24 23 22 21 20 19 18 16 14 13 13 13 13 14 16 18 18 18 18 17 16 15 14 13 13 13 12 12 11 9 9 9 11 12 13 13 16 19 20 21 21 22 22 23 24 23 22 21 20 18 16 15 13 12 12 14 18 17 19 18 15 19 18 17 17 17 14 13 15 14 13 14 13 13
25 25 24 24 23 23 22 23 24 25 24 24 23 22 21 20 19 17 15 14 13 12 13 13 14 15 17 17 17 17 16 15 14 13 12 12 12 11 10 10 8 7 8 10 12 13 14 17 19 20 20 21 22 23 23 23 22 21 19 18 16 14 13 12 13 12 13 17 16 17 17 13 17 18 16 16 16 14 14 14 12 12 13 11 11
26 25 24 24 23 23 23 23 24 24 24 23 22 22 21 20 19 17 15 14 12 12 13 13 14 15 16 17 16 16 15 14 14 13 12 11 11 10 8 8 7 6 7 9 11 13 15 17 19 19 20 21 22 22 23 23 22 20 19 17 14 12 11 13 14 14 14 16 16 17 17 12 14 17 16 16 16 16 16 15 14 13 12 10 10
26 25 24 24 23 23 23 23 24 24 23 23 22 21 20 20 19 17 14 13 12 11 13 14 14 15 15 16 16 15 14 13 12 11 11 10 10 9 7 6 5 5 7 8 10 12 14 17 19 19 20 22 22 22 22 22 21 20 18 15 12 10 10 14 15 15 16 17 17 17 16 11 12 16 17 17 17 17 17 16 16 15 14 13 12
26 25 24 23 23 22 23 23 24 23 23 23 22 21 20 19 19 16 14 14 12 12 13 14 15 15 15 16 15 14 13 12 11 11 10 10 10 9 7 6 6 6 7 8 9 11 13 16 18 20 21 22 22 21 22 22 21 19 17 14 10 8 10 13 15 16 17 16 16 17 16 11 11 14 15 16 17 18 17 17 16 16 17 16 16
26 24 24 23 22 22 22 23 23 23 23 23 22 21 20 19 18 16 15 14 12 12 13 14 15 15 16 16 15 14 13 12 11 11 11 10 10 9 9 8 7 8 8 8 8 10 12 16 18 20 21 21 21 21 22 22 21 18 15 12 8 6 9 12 14 15 15 14 14 16 16 11 10 12 14 15 16 18 17 17 16 16 17 18 18
26 25 24 23 22 21 21 22 23 23 22 22 21 21 20 20 19 17 15 14 13 13 13 14 16 16 17 16 16 15 14 13 12 11 11 10 10 10 10 9 9 8 8 8 8 10 12 15 18 19 20 21 21 21 22 22 21 18 15 11 7 6 8 10 12 13 13 13 13 14 14 11 10 11 13 14 15 16 17 17 17 17 18 19 19
26 25 24 23 22 20 20 21 22 22 22 22 22 22 21 21 19 17 15 13 13 13 13 14 16 17 17 17 16 16 14 13 12 11 11 11 11 11 10 10 10 9 8 8 8 8 10 12 15 18 20 21 20 21 22 22 20 18 15 10 6 6 8 8 10 10 10 11 13 14 13 11 10 11 11 12 14 15 15 16 17 18 18 19 19
25 25 23 22 22 21 20 21 22 23 23 23 22 22 21 20 18 17 15 13 14 13 13 14 15 16 16 17 16 15 14 13 12 12 12 11 11 11 11 11 11 10 9 9 8 8 7 8 10 15 19 20 19 20 21 21 20 18 14 9 5 6 7 7 9 9 8 9 11 13 12 11 10 10 10 11 12 13 14 15 16 16 17 18 18
23 23 23 23 23 22 22 22 23 23 23 23 22 21 21 20 18 17 15 15 15 14 14 14 14 15 15 15 14 13 13 13 12 12 11 10 10 10 10 10 10 10 9 8 8 7 7 6 7 10 15 18 19 19 21 20 20 19 14 9 5 5 6 7 9 8 7 7 9 12 12 11 10 9 10 10 10 11 13 14 14 15 15 16 17
24 23 23 24 24 24 24 23 23 23 23 22 22 22 21 20 18 16 16 16 16 15 15 15 14 14 13 13 12 12 12 13 12 11 11 10 9 9 9 10 9 9 8 7 7 6 6 6 6 7 10 15 18 19 19 19 19 18 14 9 6 4 6 6 7 7 6 6 7 10 11 11 10 9 9 9 10 10 11 12 13 13 14 15 15
26 25 25 24 25 25 25 24 23 23 23 23 23 22 21 20 18 17 17 18 17 16 16 15 14 13 13 12 12 12 12 12 11 11 11 11 10 10 10 10 10 10 9 8 7 7 6 5 6 6 7 11 15 18 18 19 18 18 14 10 7 5 6 6 6 6 5 6 7 9 11 11 10 9 8 9 9 9 10 11 11 12 12 13 13
27 26 24 23 24 24 25 25 24 24 24 24 23 23 21 19 18 18 18 17 17 16 15 14 13 13 13 12 12 11 11 11 10 11 12 12 11 10 10 10 10 9 9 8 8 7 6 6 6 6 5 7 12 16 18 18 18 17 15 10 7 6 7 6 5 5 4 6 8 9 10 10 10 9 8 8 8 8 9 9 10 10 11 11 11
27 25 23 23 22 23 24 24 25 25 24 24 24 22 20 19 18 18 18 17 16 15 14 14 13 14 13 12 12 12 11 11 10 11 12 12 11 10 10 10 9 9 8 8 7 7 7 6 6 6 6 5 9 14 18 18 17 18 15 10 8 6 6 5 3 3 4 6 8 9 10 10 9 9 8 7 7 7 8 8 9 9 9 10 10
27 25 22 23 22 23 23 23 24 24 24 24 24 22 20 19 18 18 18 17 17 15 15 14 14 14 13 12 12 12 11 10 10 10 11 11 10 10 9 9 9 8 7 7 7 7 7 6 6 6 6 6 8 13 17 17 18 19 15 10 8 6 4 4 3 3 4 6 8 10 10 9 8 8 7 6 6 6 6 7 7 7 8 8 9
28 26 23 24 23 24 24 23 24 24 24 24 23 22 20 20 19 20 19 18 17 16 16 15 14 13 13 13 12 11 10 9 9 9 9 10 9 9 9 8 8 7 7 6 6 7 6 6 5 5 6 7 8 12 16 18 20 19 14 9 9 7 5 5 4 3 4 6 8 9 8 8 8 7 7 6 5 4 4 5 5 6 7 7 8
27 26 24 24 23 24 24 23 24 24 24 23 23 22 21 21 20 20 19 18 17 16 15 14 14 14 13 12 11 11 9 9 8 8 8 8 9 9 9 8 7 7 6 6 6 6 6 6 5 6 7 8 10 12 15 18 20 19 13 9 9 7 6 5 3 2 4 6 7 7 7 7 7 7 7 6 5 4 3 3 4 4 5 6 7
26 25 24 24 23 23 23 24 24 23 22 22 22 21 21 21 20 20 18 17 16 16 14 13 15 14 13 11 11 10 9 8 8 8 8 7 8 8 8 8 7 7 6 6 6 6 7 7 7 9 11 12 13 14 16 18 21 19 14 11 9 8 6 4 2 2 4 4 5 6 6 7 6 5 5 4 5 4 4 4 3 3 4 5 6
24 23 23 23 23 23 23 24 23 22 21 21 22 21 22 21 20 20 19 18 16 15 14 14 15 14 12 11 11 9 8 7 6 7 6 6 6 6 6 6 6 6 6 7 7 7 8 9 10 12 14 15 15 15 16 18 20 19 16 13 10 8 6 3 2 1 3 3 3 5 6 5 5 5 4 3 4 4 4 5 4 4 4 5 5
23 22 23 22 22 23 22 23 22 22 21 20 21 21 22 21 21 20 19 18 16 15 14 15 16 14 13 11 10 8 7 6 6 6 6 5 5 4 4 6 6 7 8 8 8 8 9 10 11 13 14 14 14 14 15 17 18 20 18 14 9 7 6 5 4 3 2 3 4 5 5 5 5 4 2 2 3 3 5 6 6 5 5 5 4
21 20 22 23 22 22 22 23 21 21 22 20 20 21 22 21 21 20 19 17 16 15 15 16 16 14 12 11 10 8 6 6 5 5 5 5 4 4 4 5 6 7 8 9 9 9 9 9 10 11 12 11 11 12 14 16 17 17 16 13 10 8 7 5 4 3 2 3 4 5 4 4 4 3 1 2 3 4 5 7 8 7 6 6 5
20 20 22 22 22 22 23 23 21 21 22 21 20 21 22 22 21 20 19 17 16 15 16 16 15 13 12 11 9 7 6 5 4 3 4 4 3 2 3 4 4 4 6 7 8 8 8 8 8 10 10 9 10 11 12 14 14 13 11 10 10 10 9 7 5 5 3 2 3 3 3 3 2 1 1 2 2 2 4 7 8 8 7 6 5
20 22 21 21 21 22 24 23 21 21 22 22 21 22 23 23 22 20 19 18 16 15 15 15 14 12 11 9 8 6 6 5 4 3 2 2 2 1 2 2 2 3 4 5 7 7 7 7 7 8 9 10 10 10 10 11 11 10 9 9 10 10 9 8 7 6 4 3 2 3 2 2 1 1 0 0 0 1 2 5 7 8 8 7 6
20 22 20 19 21 22 24 23 22 22 22 22 22 22 23 23 21 20 19 17 15 14 14 13 12 11 10 8 8 7 6 6 5 3 2 2 3 2 2 2 2 4 5 6 6 6 5 6 7 7 9 10 10 11 11 9 8 7 7 8 9 10 9 9 8 7 5 4 3 3 2 2 1 2 2 1 0 1 2 3 5 6 6 5 5
21 21 19 19 21 23 23 23 23 23 23 22 22 22 22 21 20 19 18 15 13 13 13 13 12 10 9 8 8 7 6 6 5 5 3 3 4 4 3 3 3 4 5 6 5 4 4 5 7 7 8 10 10 11 11 8 8 6 7 8 8 9 10 11 11 8 6 5 4 3 2 1 1 1 1 1 1 1 2 3 5 5 4 3 3
22 21 20 20 22 23 22 23 24 24 23 22 22 21 20 20 19 18 17 14 13 13 13 12 11 9 9 9 8 7 6 6 6 6 5 4 4 4 4 3 3 4 4 5 4 2 3 4 5 5 7 9 10 11 10 8 8 6 5 7 9 10 11 12 12 9 6 5 4 2 1 1 1 1 1 2 2 2 3 4 5 6 5 3 3
24 21 20 22 23 23 23 23 24 24 24 23 21 20 20 20 19 17 16 14 13 13 13 12 11 10 9 9 9 8 7 7 7 7 6 5 5 4 4 3 3 4 4 5 4 3 3 3 4 4 5 7 8 11 10 7 8 5 4 5 8 10 10 11 11 10 7 5 4 3 3 3 3 4 3 3 4 4 4 4 5 6 6 5 5
25 24 24 24 24 25 24 24 25 24 24 23 21 20 20 19 18 16 15 14 13 13 12 12 12 11 10 9 9 9 8 7 8 8 8 7 6 5 4 4 4 4 4 5 5 4 4 3 3 4 4 5 6 9 9 7 7 5 4 4 7 9 9 10 11 10 8 6 5 5 5 5 5 6 6 6 5 5 6 5 5 7 8 8 9
25 27 27 25 24 25 25 25 25 25 24 22 20 20 20 19 18 16 15 15 14 13 13 13 13 11 10 10 9 9 8 8 8 9 10 9 8 6 5 4 4 4 3 4 5 5 4 3 3 4 4 5 6 7 8 7 6 5 5 4 5 7 7 7 8 9 9 7 6 6 6 7 7 8 8 7 7 7 7 7 6 7 7 7 8
25 27 28 25 24 24 24 25 24 24 22 21 19 19 19 17 17 16 16 15 14 14 13 12 11 11 11 10 9 9 8 8 9 9 9 9 8 7 6 5 4 4 4 4 5 5 5 4 4 4 5 5 6 7 7 6 6 6 5 5 6 7 6 6 7 8 9 8 7 7 7 8 8 8 8 8 8 8 8 8 7 7 6 6 6
25 27 29 27 25 24 24 24 24 23 22 21 19 18 18 17 17 17 16 15 14 13 12 11 10 10 9 9 9 9 9 8 8 8 8 8 7 7 6 5 5 5 5 5 5 6 5 5 5 4 5 6 6 7 7 6 6 8 8 8 8 8 6 6 7 8 9 9 9 9 8 8 8 7 7 7 8 7 7 7 7 7 7 6 5
26 29 30 28 26 25 24 25 25 24 22 20 19 18 18 17 16 16 15 14 13 12 11 10 9 8 8 9 9 9 9 8 8 9 8 7 7 7 7 6 6 6 5 5 6 7 6 6 6 5 6 6 5 6 8 7 8 10 10 8 6 7 6 6 8 9 10 11 10 9 8 8 7 7 6 6 6 6 5 6 6 6 5 5 4
29 31 30 27 26 26 25 26 25 23 20 19 18 18 17 17 17 16 15 14 13 12 11 10 9 9 9 9 9 10 9 9 9 9 8 7 7 8 8 7 7 6 6 7 7 7 7 7 7 7 6 7 6 6 8 9 10 10 9 7 7 7 7 8 10 10 11 11 11 10 8 8 7 7 6 6 5 4 4 5 4 4 3 3 2
31 34 31 24 25 28 28 27 25 22 21 20 20 20 19 19 19 18 17 16 14 12 10 10 10 9 9 9 9 10 9 9 9 8 8 7 8 8 7 7 7 7 7 8 9 9 9 9 9 8 8 9 9 8 8 9 10 11 9 9 9 10 10 10 11 10 11 11 11 10 9 8 8 7 6 6 5 4 5 5 3 3 2 1 0
33 36 31 23 26 31 30 28 25 23 22 23 22 22 22 21 20 20 18 16 14 13 11 10 9 9 9 9 9 9 8 8 7 7 7 7 8 7 7 8 8 8 8 9 9 9 10 10 10 9 8 10 11 11 10 9 9 11 12 11 10 10 11 11 11 10 11 11 10 9 8 8 9 8 7 8 7 7 7 5 4 4 2 1 1
33 36 31 25 30 31 30 28 25 24 24 23 23 23 23 21 20 19 18 16 15 13 11 10 9 8 8 8 8 8 7 6 5 5 6 7 7 7 6 6 7 8 9 9 9 9 11 11 11 11 10 10 11 12 12 10 9 10 12 13 12 11 10 10 10 10 11 11 10 9 8 8 9 7 7 8 8 7 6 4 4 4 3 2 1
32 35 30 28 32 32 30 29 26 26 24 23 22 21 21 19 18 18 17 17 16 13 10 9 9 7 8 7 7 8 7 6 5 5 6 7 8 7 6 6 7 8 9 9 9 8 11 12 11 11 11 11 11 11 13 12 10 11 12 11 11 11 11 10 10 10 11 11 10 9 9 9 9 8 7 7 7 7 6 4 5 5 5 3 2
31 34 32 30 33 33 31 30 28 27 25 24 22 20 20 19 17 17 17 16 15 12 10 9 8 7 8 8 7 7 6 6 6 6 6 7 7 7 7 7 7 7 8 9 9 8 9 10 10 10 11 12 12 12 13 12 11 12 12 10 11 12 11 12 13 11 10 9 8 8 8 8 7 7 7 6 7 8 7 6 7 7 6 4 3
28 31 33 32 34 34 33 31 30 29 27 25 24 22 21 21 20 19 17 16 15 14 13 12 10 9 9 8 8 7 6 6 6 7 7 6 7 7 8 8 7 7 7 8 8 8 9 9 9 10 11 12 12 13 13 13 12 11 9 8 10 11 11 13 13 11 10 9 7 7 6 6 6 8 9 9 9 8 8 7 7 7 5 3 3
26 28 31 32 34 34 33 31 30 29 28 26 25 24 23 23 23 22 21 19 18 16 14 13 11 10 10 9 9 8 6 6 7 8 8 7 8 8 9 10 9 8 7 6 7 8 8 8 9 9 10 11 11 11 13 14 14 13 10 10 9 8 11 15 14 12 10 8 7 8 7 8 10 11 12 11 8 6 6 6 5 4 3 3 3
24 28 28 31 32 31 32 30 29 29 28 28 27 25 25 24 23 23 22 20 19 16 14 12 12 11 11 10 9 8 6 6 6 7 7 7 9 9 9 10 10 9 7 6 7 7 6 7 9 9 9 10 10 10 11 13 15 15 12 12 11 9 11 16 16 14 13 11 10 11 11 11 13 14 12 9 7 5 5 4 2 3 4 5 4
23 29 28 30 31 30 32 31 30 30 29 29 28 26 26 25 24 23 20 18 16 15 14 14 13 12 11 9 8 7 6 5 4 3 4 6 10 10 10 10 9 8 8 7 7 7 7 7 8 9 9 10 9 9 10 11 12 14 14 14 11 9 12 14 14 14 16 16 15 15 16 16 15 14 11 8 7 6 6 4 3 4 5 5 4
23 27 28 30 30 31 33 32 31 32 31 29 27 25 25 25 24 23 20 17 14 14 14 14 13 11 10 9 7 6 5 4 2 1 1 4 9 10 10 10 9 8 8 7 7 7 6 6 6 8 9 9 9 9 9 9 10 12 15 15 12 11 14 14 12 13 16 18 20 21 21 20 18 14 11 9 9 7 6 6 5 4 4 3 2
24 25 30 31 32 33 34 34 34 33 30 28 27 25 24 24 24 23 21 19 17 17 16 14 12 11 10 10 8 7 7 6 4 2 1 3 6 7 8 10 9 7 5 5 7 6 6 6 7 7 8 7 8 9 9 9 9 10 13 14 14 14 15 16 15 14 16 19 23 25 24 22 20 17 12 9 9 7 5 5 4 2 1 2 2
25 26 31 33 33 35 35 35 35 33 30 29 28 26 25 25 25 24 22 20 21 20 18 16 13 11 11 11 10 9 9 8 7 5 3 5 7 7 7 8 9 7 3 4 7 7 6 6 7 7 7 7 7 8 8 9 9 11 13 13 13 14 14 15 17 17 17 21 25 26 22 20 20 18 14 10 8 5 3 4 5 4 2 2 2
Wind_Direction
159 157 156 154 157 157 158 156 153 151 150 150 143 139 139 134 130 126 121 118 115 113 111 111 116 124 130 135 136 138 145 150 152 153 155 154 149 144 140 135 133 127 120 117 113 112 115 116 114 108 102 103 106 107 107 103 101 98 94 89 84 79 74 72 68 63 58 52 56 75 77 80 93 94 92 95 95 90 92 104 107 101 99 99 100
158 154 155 154 157 157 156 155 153 152 151 150 142 140 140 136 132 127 124 121 119 116 112 111 115 123 130 133 135 136 139 144 148 153 156 152 144 140 135 131 129 125 121 118 113 109 116 119 111 106 108 110 111 110 108 104 101 98 94 89 83 79 75 73 70 63 58 52 49 62 76 78 90 96 93 96 98 94 94 103 107 102 100 102 103
156 153 154 153 157 156 156 155 153 152 152 149 142 141 141 137 134 130 126 124 123 119 116 114 116 123 131 134 135 136 137 140 144 148 149 143 133 128 127 127 127 125 123 119 116 109 115 123 114 111 113 113 112 110 108 105 102 98 94 88 82 79 75 70 66 63 57 52 46 49 70 78 83 93 95 100 104 100 96 104 111 108 106 106 106
155 153 153 153 156 157 156 155 153 152 151 147 142 142 142 140 137 132 129 128 126 123 121 118 118 122 129 134 135 135 134 136 138 139 137 130 122 119 122 125 125 125 126 125 120 112 114 118 115 115 114 114 115 112 108 104 100 95 92 86 82 78 73 67 61 60 55 49 44 44 63 80 80 83 87 95 104 104 102 109 115 116 113 112 114
156 154 153 153 156 157 157 155 154 152 151 147 142 144 144 143 140 136 133 132 130 128 126 122 121 121 126 131 132 131 129 130 130 129 127 125 123 123 125 125 123 123 128 131 124 115 112 110 114 115 115 117 115 110 105 100 96 92 88 83 80 79 73 67 62 58 52 46 42 40 52 74 81 81 83 89 102 106 108 114 117 119 120 118 123
158 155 153 153 155 157 156 155 154 152 151 147 144 146 147 147 143 139 136 136 134 132 131 127 125 122 124 127 128 127 124 123 123 123 123 123 123 123 125 125 128 128 132 136 129 119 109 107 115 117 118 118 113 108 103 100 96 92 87 83 80 80 78 72 65 57 49 45 39 36 42 65 77 80 82 87 98 100 103 117 118 119 127 127 129
158 153 151 152 154 155 156 155 154 153 152 149 147 148 149 149 145 141 140 140 138 136 135 132 128 125 125 126 127 126 124 123 123 123 124 124 121 121 124 125 129 133 139 141 135 126 110 109 118 119 120 118 113 110 106 102 98 94 90 87 87 85 85 82 77 65 49 44 37 30 30 55 73 76 80 83 89 91 98 112 113 117 128 133 134
156 152 150 150 153 154 156 156 155 155 153 150 149 150 151 150 148 145 144 145 142 138 138 136 131 128 126 126 126 127 128 128 128 130 134 133 130 128 126 124 125 132 144 145 138 131 114 113 121 121 121 118 115 113 109 106 101 98 96 94 94 93 92 85 79 72 55 45 37 26 23 45 68 72 79 83 85 87 95 102 101 109 122 126 128
155 150 149 150 152 154 156 157 156 156 154 153 152 153 153 153 151 147 147 148 146 141 142 140 134 129 126 125 126 128 131 133 133 137 143 143 139 135 129 126 126 130 142 144 138 134 122 117 123 123 121 120 119 117 113 109 105 103 100 99 98 101 96 82 76 69 58 45 35 23 21 40 64 72 78 82 83 81 87 91 90 95 105 108 114
153 148 149 149 150 153 156 158 157 158 156 156 156 155 155 155 153 149 150 152 151 147 146 143 136 131 128 127 127 128 130 132 132 137 143 144 143 137 135 134 128 131 138 143 140 138 127 121 123 124 123 123 122 119 116 112 109 107 103 102 104 110 95 81 78 68 56 44 33 22 23 42 62 71 77 80 80 79 81 82 81 84 88 89 94
149 146 147 147 149 153 157 159 158 159 159 159 159 157 156 155 153 152 154 156 157 153 149 144 137 134 131 130 128 128 127 126 129 134 139 142 141 138 136 132 126 131 137 141 142 140 130 123 124 126 127 126 124 121 118 115 112 110 106 105 112 114 94 82 76 67 56 43 33 26 28 45 57 68 78 78 78 79 79 80 80 81 80 79 81
145 144 145 146 148 151 156 158 159 160 160 161 160 158 156 155 155 156 160 160 161 157 153 145 139 137 135 133 130 128 127 128 133 135 136 135 133 129 124 119 117 121 127 132 135 140 136 126 128 131 131 129 127 124 120 117 115 113 109 109 120 114 91 83 74 65 55 42 32 26 29 42 52 63 75 76 77 79 81 82 81 82 80 79 80
144 145 146 145 146 149 154 157 159 160 160 162 161 160 158 157 158 161 164 163 162 159 154 146 141 140 137 135 133 131 131 131 133 133 132 131 128 123 118 115 114 112 114 117 125 139 145 134 132 136 134 132 129 126 123 120 119 116 112 113 125 117 93 85 75 64 53 39 29 27 30 41 50 56 68 76 78 79 81 81 81 82 82 81 81
145 146 145 143 143 147 151 155 158 158 160 162 163 162 159 159 160 164 166 164 160 158 154 147 142 141 140 138 138 136 134 130 126 126 126 127 125 119 114 111 111 108 103 102 109 127 145 142 137 138 136 135 132 129 127 125 124 119 112 112 126 115 102 97 84 69 51 37 32 36 36 43 53 52 59 70 75 79 80 81 81 81 81 81 81
146 145 142 140 142 146 152 155 156 157 161 163 164 162 159 159 162 166 167 162 158 158 154 146 143 143 143 144 143 139 133 128 122 122 124 123 118 112 107 105 105 102 100 97 96 104 121 137 141 142 140 139 138 136 132 130 129 123 115 112 121 118 112 102 87 73 49 40 42 43 40 48 57 53 55 62 69 76 79 80 81 81 81 82 82
148 146 142 142 145 149 153 155 157 158 161 162 163 160 159 161 164 168 165 162 161 160 155 148 147 147 148 148 143 135 129 129 126 127 128 125 117 111 107 105 106 102 102 99 96 101 105 121 137 145 145 142 142 141 136 135 135 128 121 117 127 133 117 96 83 77 50 43 46 41 42 51 55 54 58 58 62 69 76 79 80 82 82 82 82
153 150 147 148 151 153 156 157 158 158 160 161 161 160 162 165 165 167 164 164 164 162 156 152 152 150 152 149 140 133 135 138 133 132 129 126 120 114 112 109 110 105 102 99 96 105 109 117 129 148 155 148 145 145 142 140 139 133 129 133 148 139 112 99 87 78 50 37 32 32 42 51 52 55 61 58 57 61 69 77 80 82 82 83 82
156 156 154 155 157 158 159 157 158 159 161 161 162 164 166 168 166 166 164 166 166 164 158 156 158 153 152 149 144 144 145 142 131 131 130 127 123 116 114 111 111 109 106 104 103 109 113 121 129 148 167 163 152 148 149 147 143 137 135 146 156 134 112 110 94 77 45 25 17 18 34 47 52 56 64 62 57 59 64 71 77 79 81 81 82
157 160 159 160 162 161 161 159 160 161 163 163 165 167 169 169 167 166 166 168 167 164 160 160 162 154 154 154 151 151 146 140 131 132 131 127 125 119 117 116 116 115 113 108 103 102 103 111 122 138 158 175 166 154 154 153 150 143 140 151 160 148 130 120 98 74 38 13 6 10 27 41 51 56 64 64 59 60 63 69 74 79 81 82 83
159 163 162 163 165 164 163 162 164 164 165 165 167 169 170 170 165 167 168 169 166 163 163 162 163 158 159 160 155 155 150 144 139 136 132 130 127 123 121 120 119 116 113 106 99 94 91 99 108 129 141 160 171 162 160 161 157 149 142 150 166 165 145 129 110 70 31 8 5 11 24 36 49 55 60 64 60 59 62 67 74 80 83 85 85
162 165 165 166 167 166 167 167 167 167 168 169 170 170 170 169 165 169 171 169 166 165 167 165 165 163 163 162 158 159 157 151 145 140 135 134 129 126 125 119 118 118 114 105 97 93 91 98 106 126 138 147 159 159 163 165 161 152 142 153 170 165 148 128 109 68 24 6 4 10 20 32 47 54 59 64 62 61 60 64 72 78 82 84 85
163 166 168 170 169 170 172 171 169 170 173 173 174 173 171 168 169 173 173 171 169 171 173 168 165 163 164 162 159 161 160 157 147 140 137 137 133 131 130 122 121 121 116 109 103 103 103 107 113 124 132 142 144 147 159 163 161 153 143 158 174 167 147 119 101 64 19 -0 358 6 15 28 40 48 55 61 67 76 71 63 72 80 83 86 88
163 168 170 171 172 173 176 176 173 174 177 178 178 176 171 169 173 175 175 175 174 177 175 168 162 161 165 162 160 163 165 162 147 139 141 143 141 138 136 130 129 125 121 121 116 116 119 123 125 128 129 133 131 134 149 159 160 151 144 156 169 172 155 120 101 37 7 352 351 1 10 24 33 38 46 59 68 88 105 90 88 94 94 95 96
161 166 168 173 177 177 180 181 180 180 180 181 181 179 174 173 176 177 178 181 181 180 175 167 163 161 165 162 162 167 169 162 145 142 148 146 144 145 143 137 133 129 128 131 125 121 124 130 133 133 133 133 132 133 143 157 160 153 153 159 162 172 165 138 121 356 349 353 4 9 12 22 28 29 39 58 70 90 126 133 124 119 114 109 106
159 164 169 175 179 181 185 185 185 185 184 184 184 183 180 178 177 179 183 185 184 179 173 169 165 164 166 163 167 171 169 157 141 146 150 141 139 143 142 131 123 122 124 127 127 125 123 129 136 138 135 132 131 133 139 153 163 165 170 168 166 178 183 194 207 283 324 346 11 10 12 17 13 13 28 54 72 95 127 145 152 147 137 126 116
160 164 170 176 180 187 190 189 188 187 188 187 186 186 184 181 180 183 186 185 183 177 173 172 168 168 170 168 172 177 174 161 151 155 145 128 121 121 121 115 114 115 117 121 126 127 126 132 140 140 135 133 132 136 141 148 162 176 183 180 181 192 198 220 225 228 296 322 336 351 1 9 3 1 27 78 88 107 134 151 162 163 157 147 134
161 165 172 177 182 190 195 193 190 188 188 188 190 189 187 185 183 186 188 185 182 179 176 173 171 171 172 172 175 179 178 172 170 160 135 125 116 108 111 114 119 115 117 126 133 134 135 142 149 147 142 141 143 148 152 151 158 173 183 186 195 210 214 219 228 226 262 304 314 332 345 357 356 357 59 109 105 115 140 157 166 167 167 163 154
163 167 174 179 184 190 194 196 194 189 185 186 190 189 188 187 187 188 187 185 184 182 178 174 174 174 175 177 179 182 181 178 180 159 132 140 142 117 116 123 117 112 121 134 143 143 147 153 157 161 162 161 160 160 162 162 161 163 167 175 193 211 220 224 227 220 227 269 292 314 327 341 341 344 116 130 115 119 142 160 166 168 170 168 167
167 169 174 178 185 189 191 196 196 189 184 185 188 188 190 189 188 189 186 186 187 184 181 179 176 177 180 182 182 184 179 173 172 163 157 182 193 180 161 155 115 114 138 151 153 144 143 157 158 163 172 174 173 173 173 174 170 165 163 173 196 207 217 227 221 207 207 228 259 283 287 300 295 301 308 161 109 97 122 154 161 164 169 168 170
171 175 179 181 186 188 186 191 193 187 184 185 187 188 189 189 188 188 188 188 188 186 184 182 179 182 184 184 187 186 178 177 178 178 193 231 243 233 220 208 146 132 148 158 157 141 134 153 160 162 175 180 181 181 182 182 177 177 176 182 201 210 218 223 210 199 203 220 236 252 260 279 292 312 330 342 0 102 104 144 155 156 163 166 167
175 182 188 187 184 184 182 184 187 184 183 185 186 187 187 188 186 187 189 186 185 186 185 183 183 186 187 189 194 192 189 190 189 191 204 230 240 238 232 215 168 151 152 157 155 148 147 152 159 163 175 183 186 185 186 187 184 185 187 191 201 210 218 215 207 204 207 213 216 222 232 255 284 336 352 24 127 134 101 117 140 139 133 148 162
176 184 190 186 181 181 180 181 183 180 181 182 182 183 184 185 186 186 188 186 185 185 185 185 184 185 189 194 199 199 201 201 200 204 213 223 228 231 227 210 185 171 164 169 170 168 173 161 160 163 172 184 191 190 190 193 194 186 181 200 207 206 210 209 206 203 200 204 197 186 177 147 145 136 108 92 87 95 99 99 115 132 132 143 160
170 176 184 182 180 180 181 181 180 178 179 179 178 179 181 184 186 186 186 186 187 186 185 186 186 187 191 198 203 205 209 214 214 215 219 224 221 216 214 213 206 194 185 188 197 212 205 170 158 168 176 184 188 190 192 196 202 193 162 187 200 195 193 193 193 188 186 189 174 151 141 143 145 141 123 99 85 83 98 98 94 117 125 115 112
172 170 175 179 180 179 181 181 179 179 178 177 178 180 183 186 186 184 183 184 184 185 186 188 191 192 194 198 200 205 217 225 224 223 226 231 227 219 218 225 228 218 200 196 207 222 216 185 168 180 181 180 186 192 195 196 200 194 168 164 184 186 180 180 184 186 186 177 159 147 147 148 140 133 125 115 111 102 105 109 98 104 105 95 93
177 167 165 174 184 183 182 182 179 180 178 176 178 181 184 185 182 182 181 180 182 183 186 191 194 195 197 198 198 206 218 225 226 229 234 236 234 231 228 232 238 235 215 206 212 215 209 198 190 192 189 185 191 196 193 196 197 181 168 171 185 188 182 180 185 189 182 164 151 148 143 139 134 131 130 127 125 117 110 111 109 109 109 100 89
176 166 159 168 188 189 183 182 180 180 179 177 178 182 184 182 180 179 178 180 185 187 189 193 195 197 199 201 203 210 214 220 228 233 236 236 235 233 230 233 237 234 227 225 218 208 198 198 203 198 192 187 185 190 190 191 189 170 161 166 173 175 166 156 168 178 172 161 152 148 140 136 136 134 134 133 129 123 116 111 105 102 106 109 105
173 165 158 163 183 189 183 183 180 178 179 179 181 182 182 180 179 178 177 182 188 190 192 195 197 199 203 206 208 214 214 217 225 230 230 226 226 226 227 232 236 234 230 226 215 204 194 192 201 190 185 186 179 185 186 176 170 160 149 146 151 158 160 157 163 168 168 164 156 151 151 151 149 143 141 140 135 129 124 118 107 98 97 104 115
171 163 159 164 179 185 184 184 180 177 179 181 183 183 180 178 178 179 181 185 188 192 196 197 197 197 204 208 207 210 209 210 218 222 222 217 216 218 221 228 233 231 226 220 209 200 195 192 188 175 177 185 182 183 179 166 161 159 153 146 145 154 168 180 173 167 166 165 162 164 169 168 164 159 154 149 142 137 131 125 114 107 106 108 116
168 163 163 167 178 184 185 187 183 178 176 179 182 180 178 179 179 181 185 187 189 194 196 192 189 190 197 199 200 202 198 201 208 209 210 210 212 216 219 222 220 216 214 211 203 195 195 192 181 175 175 174 174 175 171 163 154 156 162 155 146 146 158 174 173 170 169 168 173 178 181 182 179 172 167 164 155 149 146 137 126 126 126 123 132
166 164 163 168 181 185 187 189 184 177 173 175 177 176 179 184 184 183 185 187 188 191 189 184 183 186 189 188 192 197 192 194 196 192 196 200 204 210 213 211 205 204 201 197 193 188 189 186 180 181 179 170 164 159 164 165 153 150 155 152 147 148 154 166 173 175 172 175 180 182 185 189 186 183 184 182 173 174 174 163 161 167 164 162 180
168 168 165 174 188 185 187 190 182 175 174 177 177 174 180 186 185 183 182 181 180 181 181 177 175 179 180 177 182 187 186 188 186 183 185 188 193 193 196 197 192 192 189 186 186 182 181 180 180 179 177 175 169 160 165 174 165 155 152 152 152 152 158 166 174 175 175 179 181 180 187 191 191 197 199 195 194 195 188 181 191 197 192 216 312
171 171 168 179 190 185 187 190 182 176 177 181 181 176 178 182 181 179 176 174 175 178 179 170 165 172 172 167 171 176 179 178 173 178 177 175 179 174 178 183 180 183 184 183 183 179 179 179 180 178 174 181 179 168 165 172 177 170 161 157 153 154 165 174 176 174 176 179 179 181 187 196 203 210 210 209 213 205 186 185 207 195 168 145 89
174 172 171 183 189 184 186 189 182 177 178 182 185 178 174 177 179 176 173 174 175 175 171 159 157 167 167 163 168 171 171 164 155 165 166 165 168 166 172 175 175 184 186 187 183 179 181 179 181 184 180 182 182 170 163 167 175 171 165 162 158 163 172 179 181 181 183 183 183 186 192 209 212 202 205 210 200 187 172 173 183 160 134 130 128
173 173 175 183 187 184 186 186 178 176 179 181 183 178 171 174 175 171 174 177 174 172 172 166 163 167 167 164 165 163 159 156 153 156 155 159 166 168 173 176 179 188 188 188 188 184 184 181 183 190 191 189 185 176 165 168 178 174 171 167 162 167 173 181 185 183 189 192 190 194 197 212 206 176 174 173 161 162 160 158 152 133 127 135 137
173 178 179 183 186 188 189 183 175 175 178 178 178 174 170 172 170 165 172 176 174 179 185 183 179 176 171 162 157 153 148 151 153 155 153 156 165 166 167 170 180 191 186 182 186 190 188 184 187 191 196 198 196 191 178 172 182 191 200 191 174 174 178 186 188 180 186 193 187 185 180 175 161 146 146 148 156 163 155 148 141 127 126 126 114
177 179 181 185 186 188 188 180 174 175 177 175 173 170 168 170 168 168 175 177 177 186 190 186 181 178 173 164 159 156 154 152 149 152 156 159 165 165 164 167 175 182 182 182 187 196 195 187 189 191 194 198 202 204 195 185 186 193 209 214 209 207 191 182 177 170 173 178 167 154 146 144 141 142 145 151 167 170 143 136 133 116 107 104 103
177 177 181 187 186 184 182 177 175 177 176 173 171 168 168 172 172 173 179 180 178 183 186 183 178 178 176 170 165 160 156 154 149 152 160 170 175 174 168 164 167 169 172 181 183 185 188 186 188 190 191 195 199 205 205 200 195 193 197 206 216 223 204 187 178 173 166 155 147 140 133 134 138 143 151 155 159 139 109 106 100 86 97 106 102
174 179 180 184 185 180 177 177 178 178 175 172 172 172 173 177 179 180 183 183 181 179 176 174 172 176 177 170 164 162 161 163 166 168 167 176 178 175 168 160 160 164 162 167 173 170 172 177 183 186 188 193 196 200 204 205 201 197 196 200 205 199 194 192 188 186 172 151 142 140 137 136 139 147 153 142 123 102 89 88 81 83 95 99 94
163 178 180 179 182 178 175 179 180 179 177 174 175 178 180 183 184 185 184 184 189 184 174 169 164 167 169 163 165 175 178 181 199 199 143 170 173 168 160 152 152 158 157 163 171 169 166 166 171 181 185 191 199 198 198 205 209 205 199 197 195 179 177 188 191 189 179 160 150 147 145 143 143 150 152 134 117 103 89 88 88 89 91 84 77
154 174 181 179 181 180 178 181 182 181 180 179 181 183 185 186 186 187 187 185 187 182 173 169 165 164 167 167 176 192 198 204 208 187 117 157 175 177 163 153 153 154 150 166 174 170 170 164 158 166 175 184 199 203 200 208 209 204 203 198 190 182 177 182 186 185 179 167 155 151 150 148 147 154 155 136 124 115 86 66 60 51 44 40 30
155 169 181 181 182 183 182 183 183 181 181 183 186 185 186 188 188 190 193 187 181 175 171 171 171 173 177 176 179 189 199 207 206 189 161 154 171 188 177 155 156 156 137 163 173 169 167 161 155 161 168 173 188 200 199 202 199 193 198 200 199 199 189 182 183 184 178 165 155 152 152 152 153 156 156 143 135 124 71 42 40 35 26 24 21